Palos Park, Illinois, United States (60464)
Lat: 41.67N, Lon: 87.83W
Wx Zone: ILZ014
Local Info
Past Weather Observations for Friday, March 27, 2015

NOTE: This archive is for the closest National Weather Service station to Palos Park. Information may differ from the station used for current weather conditions.

Click here for Long-term Archive

Time Weather Temperature Dewpoint Humidity Pressure Winds Precip Visibility
23:53
Partly Cloudy
27°F / -3°C 14°F / -10°C 59% 30.21 in
(1023 mb)
NNE 6.9 mph
(NNE 11 kph)
- 10SM
22:53
Partly Cloudy
27°F / -3°C 14°F / -10°C 59% 30.21 in
(1023 mb)
N 9.2 mph
(N 15 kph)
- 10SM
21:53
Partly Cloudy
27°F / -3°C 14°F / -10°C 59% 30.21 in
(1023 mb)
N 9.2 mph
(N 15 kph)
- 10SM
20:53
Partly Cloudy
27°F / -3°C 10°F / -12°C 50% 30.21 in
(1023 mb)
N 10.4 mph
(N 17 kph)
- 10SM
19:53
Clear
27°F / -3°C 12°F / -11°C 54% 30.21 in
(1023 mb)
NNE 10.4 mph
(NNE 17 kph)
- 10SM
18:53
Partly Cloudy
27°F / -3°C 12°F / -11°C 54% 30.18 in
(1022 mb)
NE 13.8 mph
(NE 22 kph)
- 10SM
17:53
Partly Cloudy
27°F / -3°C 12°F / -11°C 54% 30.18 in
(1022 mb)
N 12.7 mph
(N 20 kph)
- 10SM
16:53
Partly Cloudy
30°F / -1°C 12°F / -11°C 47% 30.18 in
(1022 mb)
NE 15 mph
(NE 24 kph)
- 10SM
15:53
Partly Cloudy
30°F / -1°C 10°F / -12°C 43% 30.15 in
(1021 mb)
NE 12.7 mph
(NE 20 kph)
- 10SM
14:53
Partly Cloudy
30°F / -1°C 10°F / -12°C 43% 30.15 in
(1021 mb)
NNE 17.3 mph
(NNE 28 kph)
- 10SM
13:53
Mostly Cloudy
30°F / -1°C 10°F / -12°C 43% 30.15 in
(1021 mb)
NE 17.3 mph
(NE 28 kph)
- 10SM
12:53
Mostly Cloudy
30°F / -1°C 10°F / -12°C 43% 30.18 in
(1022 mb)
NNE 13.8 mph
(NNE 22 kph)
- 10SM
11:53
Mostly Cloudy
28°F / -2°C 10°F / -12°C 47% 30.18 in
(1022 mb)
NE 13.8 mph
(NE 22 kph)
- 10SM
10:53
Mostly Cloudy
28°F / -2°C 12°F / -11°C 51% 30.18 in
(1022 mb)
N 13.8 mph
(N 22 kph)
- 10SM
09:53
Mostly Cloudy
28°F / -2°C 12°F / -11°C 51% 30.18 in
(1022 mb)
NNW 13.8 mph
(NNW 22 kph)
- 10SM
08:53
Partly Cloudy
27°F / -3°C 12°F / -11°C 54% 30.15 in
(1021 mb)
N 16.1 mph
(N 26 kph)
- 10SM
07:53
Partly Cloudy
27°F / -3°C 12°F / -11°C 54% 30.15 in
(1021 mb)
NNW 19.6 mph
(NNW 32 kph)
0.00 in
(0.00 mm)
10SM
06:53
Overcast
Light Snow
27°F / -3°C 16°F / -9°C 64% 30.15 in
(1021 mb)
N 16.1 mph
(N 26 kph)
0.00 in
(0.00 mm)
10SM
05:53
Overcast
Light Snow
27°F / -3°C 19°F / -7°C 74% 30.12 in
(1020 mb)
N 17.3 mph
(N 28 kph)
0.00 in
(0.00 mm)
4SM
05:46
Overcast
Light Snow
27°F / -3°C 19°F / -7°C 74% 30.12 in
(1020 mb)
NNE 17.3 mph
(NNE 28 kph)
0.00 in
(0.00 mm)
3SM
04:53
Overcast
Light Snow
28°F / -2°C 23°F / -5°C 80% 30.09 in
(1019 mb)
NNE 16.1 mph
(NNE 26 kph)
0.00 in
(0.00 mm)
1 1/4SM
04:43
Overcast
Light Snow
28°F / -2°C 23°F / -5°C 80% 30.09 in
(1019 mb)
N 16.1 mph
(N 26 kph)
0.00 in
(0.00 mm)
2SM
04:21
Overcast
Light Snow
28°F / -2°C 25°F / -4°C 86% 30.09 in
(1019 mb)
NNE 12.7 mph
(NNE 20 kph)
0.00 in
(0.00 mm)
2SM
04:08
Overcast
Light Snow
28°F / -2°C 25°F / -4°C 86% 30.09 in
(1019 mb)
N 10.4 mph
(N 17 kph)
0.00 in
(0.00 mm)
1 1/4SM
03:53
Overcast
Light Snow
28°F / -2°C 25°F / -4°C 86% 30.09 in
(1019 mb)
N 12.7 mph
(N 20 kph)
0.00 in
(0.00 mm)
2SM
03:46
Overcast
Light Snow
28°F / -2°C 25°F / -4°C 86% 30.09 in
(1019 mb)
N 10.4 mph
(N 17 kph)
0.00 in
(0.00 mm)
1 1/4SM
02:53
Overcast
Light Snow
30°F / -1°C 25°F / -4°C 80% 30.09 in
(1019 mb)
NE 6.9 mph
(NE 11 kph)
0.01 in
(0.25 mm)
2SM
02:35
Overcast
Light Snow
30°F / -1°C 25°F / -4°C 80% 30.06 in
(1018 mb)
N 9.2 mph
(N 15 kph)
0.01 in
(0.25 mm)
1SM
02:31
Overcast
Light Snow
30°F / -1°C 25°F / -4°C 80% 30.06 in
(1018 mb)
N 12.7 mph
(N 20 kph)
0.00 in
(0.00 mm)
1SM
01:53
Overcast
Light Snow
30°F / -1°C 25°F / -4°C 80% 30.06 in
(1018 mb)
NNE 10.4 mph
(NNE 17 kph)
0.00 in
(0.00 mm)
7SM
00:53
Overcast
Light Snow
32°F / 0°C 21°F / -6°C 64% 30.06 in
(1018 mb)
N 12.7 mph
(N 20 kph)
0.00 in
(0.00 mm)
5SM
Time Weather Temperature Dewpoint Humidity Pressure Winds Precip Visibility


Weather for websites

WeatherForYou.com, LLC is not responsible for any damages or problems caused by this service. Current weather conditions are obtained from the closest station including government and personal stations which may have varying degrees of accuracy. Weather forecasts are derived from the NOAA NDFD. Like all things, this site belongs to Jesus Christ... He just trusts me to maintain it. If you have any questions or comments email webmaster@weatherforyou.com

Copyright © 2015, WeatherForYou.com LLC. All rights reserved.